Flag for Sweden Weather past 2 weeks in Kiruna, Sweden

Now
21 °F

Light snow. Overcast.


Feels Like: 21 °F
Forecast: 17 / 30 °F
Wind: No wind

Location: Kiruna Airport

Current Time: Mar 28, 2015 at 12:06:27 AM

Latest Report: Mar 27, 2015 at 11:20 PM


Visibility: 1 mi

Pressure: 29.65 "Hg

Humidity: 93%

Dew point: 19 °F

Location of KirunaLocation

Historic Weather in Kiruna — Graph

°F

Kiruna temperature yesterday

Maximum temperature yesterday: 25 °F (at 12:50 PM)
Minimum temperature yesterday: 12 °F (at 4:20 AM)
Average temperature yesterday: 21 °F

Past Weeks' High & Low Weather Summary

 TemperatureHumidityPressure
High43 °F (Mar 16, 12:50 PM)100% (Mar 27, 8:50 PM)30.80 "Hg (Mar 27, 8:50 PM)
Low0 °F (Mar 24, 8:20 PM)24% (Mar 16, 12:50 PM)29.06 "Hg (Mar 23, 2:50 PM)
Average25 °F68%30.05 "Hg
* Reported Mar 12 11:20 PM — Mar 27 11:20 PM, Kiruna, Weather by CustomWeather, © 2015

Note: Actual official high and low records may vary slightly from our data, if they occured in-between our weather recording intervals... More about our weather records

Advertising

Kiruna weather history for previous 24 hours

 ConditionsComfort  
Time TempWeatherWind HumidityBarometerVisibility
11:20 PM
Fri, Mar 27
21 °FLight snow. Overcast.No wind93%29.65 "Hg1 mi
10:50 PM21 °FLight snow. Ice fog.No wind93%29.65 "Hg2 mi
10:20 PM21 °FLight snow. Ice fog.2 mph100%29.65 "Hg1 mi
9:50 PM21 °FSnow. Ice fog.3 mph100%29.68 "Hg2 mi
9:20 PM21 °FSnow. Ice fog.2 mph100%29.71 "Hg1 mi
8:50 PM21 °FLight snow. Ice fog.3 mph100%29.71 "Hg1 mi
8:20 PM23 °FLight snow. Ice fog.2 mph93%29.74 "Hg3 mi
7:50 PM23 °FLight snow. Ice fog.2 mph93%29.74 "Hg2 mi
7:20 PM23 °FLight snow. Ice fog.3 mph93%29.77 "Hg2 mi
6:50 PM23 °FLight snow. Mostly cloudy.6 mph93%29.77 "Hg4 mi
6:20 PM23 °FLight snow. Ice fog.7 mph93%29.77 "Hg2 mi
5:50 PM23 °FLight snow. Ice fog.6 mph93%29.77 "Hg6 mi
5:20 PM23 °FLight snow. Ice fog.6 mph93%29.80 "Hg4 mi
4:50 PM23 °FLight snow. Ice fog.5 mph93%29.80 "Hg2 mi
4:20 PM23 °FLight snow. Ice fog.9 mph93%29.80 "Hg1 mi
3:50 PM25 °FLight snow. Mostly cloudy.8 mph86%29.80 "Hg5 mi
3:20 PM25 °FLight snow. Ice fog.14 mph86%29.80 "Hg6 mi
2:50 PM25 °FLight snow. More clouds than sun.16 mph86%29.83 "Hg4 mi
2:20 PM23 °FSnow. Ice fog.15 mph93%29.83 "Hg2 mi
1:50 PM25 °FLight snow. More clouds than sun.12 mph80%29.83 "HgN/A
1:20 PM25 °FScattered clouds.14 mph80%29.83 "HgN/A
12:50 PM25 °FLight snow. Partly sunny.14 mph80%29.83 "HgN/A
12:20 PM23 °FLight snow. Ice fog.13 mph86%29.86 "Hg4 mi
11:50 AM23 °FLight snow. Ice fog.14 mph86%29.86 "Hg5 mi
11:20 AM23 °FLight snow. Ice fog.13 mph86%29.86 "Hg3 mi
10:50 AM23 °FLight snow. Overcast.18 mph80%29.86 "Hg4 mi
10:20 AM23 °FBroken clouds.17 mph80%29.86 "HgN/A
9:50 AM21 °FLight snow. Partly sunny.15 mph86%29.86 "HgN/A
9:20 AM21 °FLight mixture of precip. Overcast.17 mph86%29.86 "HgN/A
8:50 AM21 °FScattered clouds.14 mph80%29.86 "HgN/A
8:20 AM19 °FPassing clouds.12 mph86%29.89 "HgN/A
7:50 AM19 °FSunny.9 mph86%29.89 "Hg10 mi
7:20 AM19 °FSunny.8 mph79%29.89 "Hg10 mi
6:50 AM18 °FSunny.8 mph86%29.92 "Hg10 mi
6:20 AM18 °FSunny.8 mph86%29.92 "Hg10 mi
5:50 AM12 °FSunny.6 mph85%29.92 "Hg10 mi
5:20 AM12 °FCold.6 mph92%29.92 "HgN/A
4:20 AM12 °FCold.9 mph85%29.95 "HgN/A
3:50 AM14 °FCold.9 mph85%29.95 "HgN/A
3:20 AM14 °FCold.15 mph85%29.95 "HgN/A
2:50 AM16 °FCold.12 mph79%29.98 "HgN/A
2:20 AM16 °FCold.12 mph79%29.98 "HgN/A
1:50 AM18 °FCold.12 mph73%30.01 "HgN/A
12:50 AM18 °FPassing clouds.12 mph68%30.01 "HgN/A
12:20 AM18 °FPartly cloudy.15 mph68%30.01 "HgN/A
Weather by CustomWeather, © 2015

See weather overviewHow to use our weather pages